Garrison, ND

3:39 AM CDT on May 27, 2017 (GMT -0500)
Garrison

Weather History for KN60 - September, 2013

Change the Weather History Date:

Tuesday, September 3, 2013

  Actual Average Record
Temperature  
Mean Temperature 74 °F -  
Max Temperature 90 °F - 96 °F (2015)
Min Temperature 58 °F - 36 °F (2008)
Degree Days  
Heating Degree Days 0    
Month to date heating degree days 2  
Cooling Degree Days 9    
Month to date cooling degree days 11  
Year to date cooling degree days 323  
Growing Degree Days 24 (Base 50)    
Moisture  
Dew Point 58 °F    
Average Humidity 61    
Maximum Humidity 93    
Minimum Humidity 29    
Precipitation  
Precipitation 0.00 in - 0.63 in (1999)
Month to date precipitation 0.00  
Year to date precipitation 22.31  
Sea Level Pressure  
Sea Level Pressure 29.96 in    
Wind  
Wind Speed 3 mph (ESE)    
Max Wind Speed 12 mph    
Max Gust Speed 14 mph    
T = Trace of Precipitation, MM = Missing Value Source: NWS Daily Summary

Daily Weather History Graph

Daily Weather History Graph

Search for Another Location

Airport or City:

Trip Planner

Search our weather history database for the weather conditions in past years. The results will help you decide how hot, cold, wet, or windy it might be!

Date:

Astronomy

Sep. 03, 2013 Rise Set
Actual Time 7:07 AM CDT 8:21 PM CDT
Civil Twilight 6:35 AM CDT 8:53 PM CDT
Nautical Twilight 5:57 AM CDT 9:31 PM CDT
Astronomical Twilight 5:16 AM CDT 10:12 PM CDT
Moon 5:19 AM CDT (9/3) 7:11 PM CDT (9/3)
Length of Visible Light 14h 17m
Length of Day
13h 14m
Waning Crescent, 3% of the Moon is Illuminated
Sep 3
Waning Crescent
Sep 5
New
Sep 12
First Quarter
Sep 19
Full
Sep 26
Last Quarter

Hourly Weather History & Observations

Time (CDT) Temp. Heat Index Dew Point Humidity Pressure Visibility Wind Dir Wind Speed Gust Speed Precip Events Conditions
12:52 AM 63.0 °F - 57.0 °F 81% 29.94 in - Calm Calm - N/A   Unknown
1:52 AM 61.0 °F - 55.9 °F 83% 29.94 in - Calm Calm - N/A   Unknown
2:52 AM 62.1 °F - 57.0 °F 84% 29.94 in - Calm Calm - N/A   Unknown
3:52 AM 62.1 °F - 57.0 °F 84% 29.94 in - Calm Calm - N/A   Unknown
4:52 AM 63.0 °F - 57.0 °F 81% 29.93 in - SSE 3.5 mph - N/A   Unknown
5:52 AM 60.1 °F - 57.9 °F 93% 29.94 in - SE 4.6 mph - N/A   Unknown
6:52 AM 59.0 °F - 57.0 °F 93% 29.94 in - SE 5.8 mph - N/A   Unknown
7:52 AM 61.0 °F - 57.9 °F 90% 29.95 in - Calm Calm - N/A   Unknown
8:52 AM 63.0 °F - 60.1 °F 90% 29.96 in - Calm Calm - N/A   Unknown
9:52 AM 68.0 °F - 59.0 °F 73% 29.96 in - South 3.5 mph - N/A   Unknown
10:52 AM 73.0 °F - 59.0 °F 61% 29.96 in - Calm Calm - N/A   Unknown
11:52 AM 78.1 °F - 61.0 °F 56% 29.97 in - SE 3.5 mph - N/A   Unknown
12:52 PM 81.0 °F 81.7 °F 61.0 °F 50% 29.97 in - SE 5.8 mph - N/A   Unknown
1:52 PM 84.9 °F 85.9 °F 63.0 °F 48% 29.95 in - Variable 5.8 mph - N/A   Unknown
2:52 PM 88.0 °F 86.5 °F 55.9 °F 34% 29.94 in - ESE 9.2 mph - N/A   Unknown
3:52 PM 89.1 °F 86.7 °F 53.1 °F 29% 29.93 in - ESE 9.2 mph - N/A   Unknown
4:52 PM 89.1 °F 86.7 °F 53.1 °F 29% 29.94 in - ESE 4.6 mph - N/A   Unknown
5:52 PM 88.0 °F 85.7 °F 53.1 °F 30% 29.94 in - East 4.6 mph - N/A   Unknown
6:52 PM 88.0 °F 85.9 °F 54.0 °F 31% 29.95 in - Calm Calm - N/A   Unknown
7:52 PM 81.0 °F 81.9 °F 62.1 °F 52% 29.96 in - Calm Calm - N/A   Unknown
8:52 PM 72.0 °F - 63.0 °F 73% 29.99 in - Calm Calm - N/A   Unknown
9:52 PM 73.0 °F - 59.0 °F 61% 29.99 in - NE 5.8 mph - N/A   Unknown
10:52 PM 69.1 °F - 57.9 °F 68% 30.01 in - NNE 4.6 mph - N/A   Unknown
11:52 PM 69.1 °F - 62.1 °F 78% 30.01 in - ENE 5.8 mph - N/A   Unknown